GEFSSE_prec_meanprecacc_228.txt.gz
Total_Precipitation_Accumulation
1.68 1.36 2.18 2.29 2.05 1.81 1.73 1.75 1.86 1.94 1.96 1.86 1.84 1.77 1.60 1.38 1.22 1.13 1.01 0.99 0.96 0.94 0.93 0.91 0.97 1.02 0.99 0.97 0.99 1.02 1.05 0.97 0.95 0.93 0.85 0.89 1.04 1.02 0.99 1.21 1.73 2.12 1.50
1.03 1.10 2.03 2.19 1.93 1.76 1.66 1.78 1.96 2.00 2.08 2.01 1.85 1.71 1.54 1.32 1.13 1.03 1.01 0.92 0.90 0.90 0.91 0.91 0.95 1.06 1.09 1.03 1.06 1.11 1.04 1.01 1.04 1.10 1.13 1.16 1.11 1.07 1.03 1.17 1.60 1.93 1.48
0.80 0.94 1.53 2.10 1.93 1.85 1.84 1.86 1.91 1.97 1.94 1.75 1.65 1.55 1.44 1.27 1.12 1.03 0.99 0.91 0.85 0.88 0.82 0.81 0.85 0.95 1.01 1.06 1.06 1.02 0.93 0.97 1.06 1.27 1.75 2.24 1.63 1.25 1.25 1.24 1.42 1.42 1.33
0.82 0.88 1.15 1.90 1.98 1.96 1.97 1.93 1.83 1.76 1.72 1.54 1.47 1.40 1.31 1.29 1.20 1.09 1.01 0.95 0.85 0.80 0.79 0.81 0.79 0.85 0.91 0.92 0.98 0.92 0.85 0.96 1.08 1.34 1.81 2.32 2.12 1.63 1.50 1.46 1.52 1.33 1.27
0.87 0.94 1.32 1.99 2.01 1.99 1.96 1.93 1.95 1.75 1.66 1.49 1.31 1.31 1.28 1.27 1.17 1.12 1.03 0.93 0.84 0.81 0.77 0.79 0.81 0.86 0.95 0.93 0.90 0.87 0.87 1.00 1.21 1.14 1.45 1.96 2.42 2.06 1.56 1.56 1.61 1.41 1.36
0.96 1.04 1.37 1.86 1.95 1.94 1.93 1.93 1.85 1.65 1.52 1.43 1.27 1.27 1.30 1.26 1.18 1.11 1.01 0.94 0.86 0.86 0.81 0.81 0.88 0.96 1.03 0.99 0.95 0.99 1.05 1.07 1.03 1.15 1.48 1.86 2.34 2.12 1.66 1.54 1.45 1.52 1.46
1.02 1.03 1.29 1.72 1.80 1.85 1.78 1.64 1.61 1.58 1.44 1.29 1.23 1.20 1.19 1.17 1.13 1.07 1.12 1.08 0.95 0.90 0.86 0.87 0.95 0.98 1.02 1.01 1.02 1.09 1.16 1.04 0.98 1.26 1.40 1.76 1.90 1.89 1.63 1.47 1.50 1.71 1.61
1.09 1.00 1.09 1.46 1.60 1.63 1.60 1.55 1.57 1.53 1.40 1.23 1.14 1.12 1.11 1.12 1.02 0.96 1.01 0.99 0.96 0.94 0.91 0.87 0.92 0.87 0.92 1.00 1.07 1.15 1.24 1.08 0.94 1.11 1.19 1.53 1.95 1.99 1.58 1.46 1.52 1.71 1.80
1.36 1.17 1.06 1.16 1.32 1.42 1.56 1.59 1.67 1.64 1.54 1.36 1.18 1.12 1.09 1.00 0.87 0.80 0.89 0.94 0.95 0.92 0.92 0.93 0.98 0.93 0.95 1.09 1.18 1.25 1.28 1.10 1.06 1.10 0.99 1.53 2.10 1.86 1.50 1.34 1.38 1.55 1.65
1.34 1.29 1.18 1.17 1.21 1.26 1.39 1.60 1.80 1.88 1.93 1.65 1.29 1.19 1.06 0.90 0.82 0.83 0.84 0.93 1.00 1.03 1.04 1.09 1.13 1.07 1.13 1.13 1.16 1.18 1.11 0.94 1.00 0.99 1.20 1.49 1.98 1.83 1.46 1.28 1.26 1.24 1.30
0.96 1.04 1.09 1.11 1.19 1.21 1.23 1.34 1.69 1.87 2.01 1.66 1.20 1.21 1.09 0.87 0.82 0.89 0.90 1.17 1.24 1.24 1.28 1.31 1.31 1.30 1.26 1.17 1.19 1.21 0.97 0.74 0.87 1.06 1.29 1.59 1.96 1.85 1.46 1.28 1.09 1.06 1.08
0.77 0.73 0.75 0.76 0.83 0.97 1.04 1.32 1.64 1.69 1.80 1.46 1.20 1.21 1.14 1.20 1.11 0.89 0.94 1.28 1.42 1.46 1.37 1.34 1.41 1.33 1.14 0.93 0.92 0.94 0.81 0.79 0.88 1.01 1.22 1.73 2.07 1.87 1.50 1.27 1.05 0.99 1.00
0.57 0.56 0.55 0.59 0.61 0.75 1.02 1.31 1.58 1.70 1.77 1.70 1.64 1.43 1.38 1.31 1.10 0.94 0.92 1.00 1.09 1.17 1.10 1.20 1.24 1.07 0.99 0.88 0.87 0.81 0.74 0.85 1.06 1.05 1.30 1.84 2.16 1.95 1.66 1.41 1.14 1.04 1.05
0.59 0.57 0.51 0.45 0.51 0.64 0.80 1.00 1.32 1.52 1.59 1.56 1.51 1.22 1.27 1.29 1.12 1.06 1.15 1.19 1.14 1.14 1.29 1.33 1.31 1.22 1.06 0.88 0.86 0.90 0.86 0.86 1.06 1.17 1.40 1.65 2.04 2.25 2.00 1.66 1.42 1.33 1.29
0.66 0.75 0.71 0.56 0.54 0.62 0.72 0.73 0.89 1.06 1.16 1.39 1.46 1.11 1.05 1.08 1.17 1.18 1.08 1.23 1.29 1.30 1.32 1.34 1.24 1.18 1.20 1.06 1.08 1.10 1.10 0.96 1.04 1.09 1.24 1.35 1.71 2.27 2.42 2.13 1.89 1.72 1.59
0.51 0.63 0.68 0.68 0.71 0.72 0.68 0.62 0.60 0.65 0.79 0.95 0.98 0.86 0.84 0.87 1.03 1.21 1.11 1.10 1.19 1.37 1.45 1.41 1.29 1.34 1.34 1.18 1.17 1.23 1.21 1.13 1.15 1.19 1.30 1.22 1.21 1.58 2.06 2.30 2.30 2.15 1.94
0.42 0.47 0.55 0.61 0.68 0.74 0.81 0.78 0.63 0.63 0.70 0.72 0.72 0.73 0.78 0.79 0.94 1.13 1.08 1.00 1.00 1.17 1.36 1.51 1.54 1.53 1.34 1.26 1.24 1.27 1.21 1.19 1.19 1.36 1.37 1.37 1.21 1.12 1.42 1.73 2.03 2.14 2.16
0.41 0.41 0.47 0.48 0.54 0.65 0.79 0.87 0.83 0.80 0.78 0.70 0.63 0.57 0.59 0.62 0.71 0.92 1.00 0.95 0.95 1.12 1.37 1.59 1.72 1.76 1.59 1.53 1.57 1.48 1.30 1.26 1.24 1.36 1.39 1.43 1.49 1.22 1.10 1.12 1.32 1.59 1.80
0.39 0.39 0.41 0.44 0.47 0.53 0.66 0.75 0.75 0.74 0.73 0.70 0.65 0.55 0.49 0.51 0.61 0.83 1.04 1.10 1.11 1.25 1.38 1.40 1.64 1.75 1.81 1.74 1.61 1.49 1.40 1.40 1.38 1.31 1.47 1.47 1.46 1.36 1.18 0.91 0.82 0.94 1.23
0.39 0.39 0.42 0.43 0.43 0.45 0.49 0.57 0.65 0.62 0.62 0.66 0.62 0.60 0.63 0.70 0.76 0.97 1.22 1.30 1.40 1.46 1.56 1.74 2.01 2.03 1.92 1.93 1.75 1.54 1.41 1.42 1.44 1.50 1.52 1.51 1.52 1.35 1.19 1.02 0.89 0.67 0.80
0.34 0.36 0.39 0.42 0.42 0.40 0.36 0.41 0.47 0.49 0.58 0.66 0.73 0.78 0.82 0.84 0.92 1.14 1.36 1.61 1.76 1.65 1.69 1.92 2.20 2.35 2.18 2.02 2.09 1.97 1.80 1.60 1.55 1.51 1.50 1.56 1.57 1.50 1.36 1.28 1.17 1.01 0.88
0.22 0.27 0.34 0.35 0.32 0.29 0.26 0.31 0.40 0.47 0.55 0.71 0.87 1.05 1.03 0.98 1.02 1.06 1.30 1.51 1.60 1.69 1.75 1.88 2.15 2.48 2.32 2.06 2.26 2.63 2.42 2.20 1.75 1.41 1.53 1.58 1.63 1.59 1.47 1.30 1.25 1.18 1.12
0.19 0.23 0.27 0.30 0.30 0.28 0.33 0.52 0.79 1.04 1.14 1.19 1.22 1.42 1.45 1.37 1.32 1.29 1.33 1.47 1.57 1.70 1.82 1.88 1.93 2.24 2.35 2.20 2.19 2.73 2.70 2.51 2.31 1.81 1.47 1.50 1.61 1.69 1.68 1.55 1.39 1.31 1.24
0.19 0.23 0.26 0.29 0.36 0.37 0.51 0.82 1.21 1.54 1.64 1.64 1.75 1.80 1.87 1.78 1.62 1.61 1.63 1.72 1.67 1.64 1.70 1.72 1.73 1.94 2.30 2.39 2.24 2.11 2.07 2.16 2.50 2.24 1.71 1.52 1.53 1.56 1.67 1.56 1.57 1.58 1.57
0.25 0.30 0.34 0.41 0.55 0.71 0.85 1.01 1.31 1.48 1.57 1.71 1.86 2.07 2.22 2.28 2.19 2.12 2.08 1.95 1.76 1.70 1.74 1.77 1.78 1.86 1.99 2.17 2.16 2.02 1.97 1.92 1.82 2.02 2.00 1.76 1.55 1.45 1.53 1.59 1.62 1.63 1.70
0.40 0.45 0.49 0.61 0.72 0.80 0.90 1.03 1.18 1.24 1.38 1.59 1.76 1.98 2.13 2.21 2.18 2.11 1.98 1.76 1.59 1.54 1.62 1.76 1.80 1.86 1.86 1.95 1.93 1.83 1.83 1.79 1.71 1.88 1.87 1.86 1.81 1.46 1.34 1.41 1.48 1.52 1.52

GEFSSE_prec_meanprecacc_234.txt.gz
Total_Precipitation_Accumulation
1.72 1.39 2.22 2.32 2.07 1.82 1.75 1.76 1.87 1.95 1.97 1.88 1.85 1.80 1.63 1.40 1.24 1.15 1.04 1.01 0.98 0.97 0.98 0.95 1.01 1.05 1.01 0.99 1.03 1.07 1.11 1.01 1.00 1.00 0.93 0.98 1.12 1.08 1.06 1.28 1.81 2.17 1.57
1.06 1.11 2.06 2.22 1.94 1.77 1.68 1.78 1.97 2.02 2.10 2.04 1.86 1.73 1.56 1.33 1.15 1.05 1.04 0.95 0.92 0.92 0.95 0.94 0.97 1.07 1.10 1.06 1.09 1.15 1.08 1.05 1.10 1.16 1.21 1.25 1.21 1.16 1.11 1.25 1.68 2.00 1.55
0.82 0.95 1.54 2.12 1.94 1.86 1.87 1.88 1.93 1.99 1.96 1.78 1.67 1.57 1.46 1.28 1.14 1.05 1.01 0.93 0.87 0.90 0.84 0.84 0.87 0.97 1.03 1.08 1.08 1.05 0.95 1.00 1.12 1.34 1.84 2.32 1.72 1.35 1.34 1.33 1.50 1.49 1.39
0.85 0.89 1.16 1.92 2.00 1.97 2.00 1.97 1.85 1.78 1.74 1.55 1.49 1.43 1.32 1.30 1.21 1.10 1.03 0.97 0.86 0.82 0.82 0.84 0.81 0.86 0.92 0.95 1.01 0.94 0.87 0.98 1.12 1.39 1.87 2.36 2.18 1.74 1.59 1.56 1.61 1.39 1.32
0.89 0.95 1.33 2.00 2.03 2.01 1.97 1.95 1.97 1.77 1.69 1.51 1.32 1.33 1.30 1.28 1.19 1.13 1.05 0.95 0.86 0.84 0.79 0.81 0.84 0.88 0.97 0.96 0.95 0.91 0.90 1.02 1.23 1.16 1.46 1.98 2.45 2.15 1.63 1.63 1.68 1.46 1.41
0.97 1.05 1.39 1.87 1.97 1.97 1.94 1.94 1.87 1.67 1.54 1.44 1.28 1.29 1.33 1.29 1.20 1.13 1.03 0.97 0.89 0.89 0.84 0.83 0.90 0.98 1.06 1.02 0.99 1.03 1.09 1.10 1.05 1.16 1.49 1.88 2.38 2.19 1.72 1.58 1.48 1.56 1.50
1.03 1.05 1.31 1.75 1.83 1.88 1.81 1.65 1.62 1.59 1.45 1.31 1.24 1.22 1.21 1.19 1.15 1.09 1.14 1.11 0.99 0.94 0.89 0.90 0.97 1.01 1.06 1.04 1.06 1.12 1.21 1.08 1.00 1.28 1.42 1.77 1.93 1.95 1.67 1.50 1.53 1.74 1.65
1.10 1.02 1.12 1.50 1.64 1.67 1.63 1.58 1.59 1.54 1.42 1.24 1.15 1.13 1.12 1.13 1.03 0.98 1.04 1.03 1.00 0.97 0.93 0.90 0.94 0.90 0.95 1.04 1.11 1.20 1.29 1.11 0.96 1.13 1.20 1.54 2.00 2.03 1.62 1.49 1.56 1.74 1.83
1.37 1.19 1.09 1.20 1.35 1.46 1.60 1.63 1.70 1.66 1.56 1.38 1.19 1.13 1.11 1.02 0.89 0.82 0.92 0.98 0.99 0.95 0.94 0.96 1.01 0.97 0.98 1.12 1.21 1.29 1.33 1.13 1.07 1.12 1.01 1.55 2.15 1.90 1.53 1.37 1.40 1.57 1.68
1.35 1.30 1.20 1.21 1.25 1.29 1.42 1.64 1.84 1.92 1.96 1.68 1.33 1.22 1.09 0.93 0.85 0.87 0.87 0.96 1.04 1.07 1.07 1.12 1.17 1.11 1.16 1.16 1.20 1.23 1.15 0.96 1.02 1.00 1.22 1.52 2.04 1.90 1.50 1.31 1.29 1.26 1.33
0.97 1.04 1.10 1.14 1.24 1.24 1.29 1.40 1.72 1.91 2.04 1.69 1.23 1.25 1.12 0.88 0.83 0.91 0.94 1.21 1.29 1.29 1.33 1.36 1.36 1.35 1.30 1.20 1.22 1.24 1.00 0.75 0.88 1.07 1.30 1.64 2.03 1.93 1.52 1.32 1.11 1.09 1.12
0.78 0.74 0.76 0.77 0.85 0.99 1.06 1.35 1.66 1.71 1.81 1.47 1.23 1.23 1.16 1.21 1.12 0.91 0.99 1.33 1.47 1.51 1.42 1.39 1.46 1.38 1.17 0.96 0.96 0.97 0.83 0.80 0.89 1.02 1.25 1.82 2.15 1.95 1.55 1.31 1.09 1.02 1.03
0.57 0.56 0.56 0.60 0.63 0.77 1.04 1.33 1.61 1.73 1.79 1.73 1.67 1.46 1.41 1.33 1.11 0.96 0.94 1.03 1.12 1.19 1.12 1.22 1.26 1.09 1.01 0.91 0.90 0.83 0.75 0.86 1.07 1.06 1.33 1.92 2.25 2.02 1.71 1.45 1.19 1.10 1.11
0.59 0.58 0.51 0.46 0.53 0.66 0.81 1.01 1.35 1.55 1.61 1.58 1.53 1.23 1.29 1.31 1.13 1.07 1.17 1.21 1.17 1.16 1.31 1.35 1.33 1.24 1.08 0.90 0.89 0.91 0.87 0.87 1.07 1.18 1.42 1.70 2.13 2.33 2.06 1.70 1.47 1.39 1.37
0.67 0.76 0.71 0.57 0.55 0.64 0.73 0.74 0.89 1.07 1.17 1.42 1.49 1.13 1.06 1.10 1.19 1.20 1.10 1.26 1.32 1.33 1.35 1.37 1.28 1.21 1.22 1.08 1.09 1.11 1.11 0.98 1.05 1.10 1.26 1.41 1.79 2.37 2.49 2.18 1.95 1.79 1.68
0.53 0.64 0.69 0.69 0.72 0.74 0.71 0.64 0.62 0.67 0.81 0.98 1.01 0.88 0.86 0.89 1.06 1.25 1.16 1.14 1.22 1.40 1.48 1.44 1.33 1.36 1.35 1.20 1.20 1.26 1.23 1.15 1.16 1.20 1.31 1.24 1.25 1.64 2.14 2.38 2.36 2.23 2.04
0.45 0.50 0.57 0.63 0.70 0.76 0.83 0.80 0.66 0.65 0.73 0.75 0.75 0.77 0.80 0.81 0.97 1.17 1.12 1.04 1.04 1.20 1.38 1.54 1.56 1.55 1.36 1.28 1.26 1.29 1.22 1.21 1.20 1.37 1.38 1.39 1.23 1.17 1.50 1.80 2.09 2.22 2.25
0.44 0.44 0.50 0.49 0.56 0.66 0.81 0.89 0.85 0.83 0.83 0.74 0.67 0.61 0.63 0.65 0.74 0.96 1.03 0.99 0.99 1.16 1.39 1.62 1.74 1.77 1.60 1.54 1.58 1.49 1.32 1.29 1.25 1.37 1.40 1.45 1.50 1.24 1.13 1.17 1.39 1.65 1.86
0.41 0.43 0.45 0.47 0.49 0.55 0.67 0.76 0.78 0.80 0.82 0.78 0.71 0.60 0.53 0.55 0.64 0.86 1.06 1.13 1.14 1.28 1.39 1.42 1.65 1.76 1.83 1.74 1.61 1.49 1.40 1.41 1.40 1.33 1.48 1.48 1.48 1.36 1.19 0.93 0.85 0.97 1.27
0.40 0.42 0.47 0.47 0.46 0.47 0.50 0.59 0.68 0.68 0.70 0.74 0.68 0.64 0.65 0.72 0.79 0.99 1.24 1.32 1.43 1.49 1.57 1.75 2.02 2.05 1.94 1.93 1.76 1.54 1.42 1.43 1.45 1.52 1.54 1.52 1.53 1.36 1.20 1.03 0.90 0.69 0.82
0.35 0.37 0.42 0.46 0.45 0.42 0.37 0.43 0.50 0.53 0.65 0.73 0.80 0.87 0.87 0.87 0.94 1.16 1.38 1.64 1.78 1.66 1.71 1.93 2.22 2.38 2.19 2.03 2.10 1.97 1.81 1.61 1.57 1.54 1.53 1.58 1.60 1.52 1.36 1.29 1.17 1.02 0.89
0.23 0.28 0.35 0.37 0.35 0.31 0.29 0.34 0.43 0.50 0.60 0.77 0.93 1.14 1.09 1.01 1.05 1.08 1.32 1.53 1.63 1.71 1.77 1.89 2.16 2.51 2.34 2.07 2.26 2.63 2.43 2.21 1.77 1.45 1.56 1.61 1.66 1.61 1.48 1.31 1.26 1.18 1.12
0.20 0.23 0.27 0.31 0.32 0.30 0.37 0.56 0.82 1.07 1.17 1.24 1.28 1.49 1.53 1.41 1.36 1.32 1.37 1.49 1.58 1.72 1.84 1.89 1.95 2.26 2.36 2.21 2.20 2.73 2.70 2.51 2.32 1.83 1.49 1.52 1.63 1.72 1.70 1.56 1.40 1.32 1.24
0.19 0.24 0.27 0.29 0.36 0.38 0.53 0.85 1.25 1.57 1.67 1.67 1.78 1.85 1.92 1.82 1.66 1.65 1.67 1.75 1.70 1.66 1.72 1.74 1.74 1.94 2.30 2.40 2.25 2.11 2.07 2.16 2.50 2.24 1.72 1.53 1.55 1.58 1.69 1.57 1.58 1.59 1.57
0.25 0.31 0.35 0.41 0.56 0.72 0.87 1.03 1.33 1.52 1.61 1.74 1.90 2.11 2.26 2.32 2.24 2.17 2.13 1.99 1.79 1.72 1.76 1.79 1.79 1.87 2.01 2.19 2.17 2.02 1.97 1.93 1.82 2.03 2.00 1.76 1.55 1.46 1.55 1.60 1.62 1.63 1.70
0.40 0.46 0.50 0.62 0.73 0.81 0.91 1.05 1.20 1.27 1.40 1.62 1.80 2.02 2.17 2.26 2.24 2.17 2.03 1.80 1.61 1.56 1.64 1.79 1.82 1.88 1.88 1.96 1.94 1.84 1.84 1.79 1.71 1.88 1.87 1.87 1.81 1.46 1.35 1.42 1.48 1.52 1.52

GEFSSE_prec_meanprecacc_240.txt.gz
Total_Precipitation_Accumulation
1.74 1.45 2.30 2.36 2.09 1.85 1.77 1.80 1.91 1.99 2.02 1.93 1.89 1.84 1.67 1.44 1.29 1.21 1.11 1.07 1.04 1.02 1.03 0.98 1.04 1.08 1.05 1.03 1.06 1.12 1.17 1.06 1.07 1.07 0.99 1.05 1.20 1.19 1.17 1.38 1.94 2.27 1.66
1.08 1.17 2.13 2.26 1.98 1.80 1.69 1.81 2.02 2.08 2.16 2.11 1.90 1.75 1.58 1.37 1.19 1.10 1.11 1.02 0.98 0.97 0.99 0.99 1.02 1.10 1.14 1.10 1.14 1.19 1.13 1.10 1.16 1.22 1.26 1.31 1.31 1.28 1.23 1.36 1.79 2.08 1.64
0.85 0.99 1.59 2.17 1.98 1.89 1.89 1.90 1.97 2.04 2.02 1.87 1.72 1.60 1.49 1.31 1.16 1.08 1.07 1.00 0.94 0.95 0.88 0.88 0.91 0.99 1.05 1.11 1.13 1.10 0.99 1.05 1.16 1.38 1.87 2.34 1.78 1.45 1.45 1.44 1.60 1.57 1.48
0.88 0.93 1.19 1.96 2.04 2.01 2.05 2.01 1.88 1.81 1.78 1.62 1.56 1.49 1.36 1.33 1.24 1.14 1.09 1.03 0.91 0.87 0.87 0.88 0.84 0.88 0.95 0.99 1.07 0.99 0.91 1.02 1.17 1.43 1.88 2.39 2.24 1.84 1.68 1.65 1.68 1.47 1.42
0.92 0.98 1.35 2.03 2.07 2.04 2.00 1.98 1.99 1.79 1.72 1.54 1.37 1.38 1.35 1.32 1.22 1.17 1.10 1.00 0.90 0.87 0.82 0.84 0.87 0.91 1.01 1.02 1.01 0.96 0.93 1.04 1.27 1.18 1.47 1.99 2.49 2.25 1.74 1.72 1.76 1.58 1.53
0.99 1.07 1.41 1.91 2.01 2.00 1.97 1.96 1.88 1.69 1.57 1.47 1.32 1.34 1.39 1.36 1.25 1.16 1.06 1.00 0.92 0.91 0.86 0.86 0.93 1.02 1.11 1.08 1.05 1.08 1.12 1.12 1.07 1.18 1.50 1.89 2.41 2.26 1.80 1.66 1.55 1.63 1.60
1.05 1.06 1.33 1.79 1.87 1.93 1.84 1.67 1.64 1.62 1.47 1.33 1.27 1.26 1.25 1.25 1.20 1.12 1.17 1.15 1.02 0.96 0.92 0.93 1.03 1.05 1.10 1.10 1.12 1.18 1.25 1.10 1.01 1.29 1.42 1.77 1.97 2.03 1.74 1.57 1.60 1.79 1.73
1.11 1.03 1.14 1.55 1.70 1.73 1.68 1.60 1.61 1.56 1.44 1.26 1.18 1.16 1.15 1.16 1.06 1.01 1.09 1.09 1.03 1.00 0.96 0.93 1.00 0.95 1.00 1.09 1.17 1.25 1.34 1.13 0.97 1.14 1.20 1.55 2.05 2.11 1.68 1.56 1.62 1.79 1.89
1.39 1.20 1.11 1.24 1.41 1.53 1.66 1.67 1.73 1.70 1.60 1.41 1.23 1.17 1.15 1.07 0.92 0.87 0.99 1.04 1.05 0.98 0.97 1.00 1.07 1.02 1.03 1.15 1.26 1.34 1.37 1.15 1.08 1.14 1.01 1.57 2.23 1.99 1.59 1.40 1.43 1.60 1.71
1.37 1.31 1.20 1.23 1.30 1.34 1.47 1.70 1.89 1.96 2.00 1.72 1.37 1.27 1.14 0.97 0.89 0.92 0.93 1.04 1.12 1.13 1.13 1.17 1.22 1.17 1.21 1.21 1.24 1.28 1.19 0.98 1.03 1.01 1.23 1.56 2.11 1.98 1.57 1.35 1.34 1.31 1.38
0.98 1.05 1.10 1.15 1.27 1.28 1.32 1.43 1.76 1.95 2.08 1.73 1.27 1.29 1.15 0.90 0.85 0.93 0.97 1.27 1.37 1.37 1.40 1.43 1.41 1.41 1.35 1.25 1.27 1.28 1.01 0.75 0.88 1.08 1.33 1.71 2.10 2.01 1.59 1.38 1.17 1.15 1.17
0.79 0.76 0.78 0.78 0.87 1.04 1.11 1.37 1.68 1.73 1.83 1.49 1.24 1.25 1.18 1.22 1.13 0.92 1.02 1.38 1.55 1.59 1.49 1.45 1.50 1.41 1.19 0.97 0.98 0.98 0.83 0.80 0.89 1.03 1.30 1.91 2.24 2.04 1.63 1.37 1.16 1.10 1.10
0.59 0.59 0.59 0.62 0.64 0.80 1.10 1.38 1.63 1.75 1.81 1.75 1.69 1.49 1.43 1.34 1.13 0.98 0.95 1.04 1.14 1.22 1.14 1.24 1.27 1.10 1.01 0.91 0.90 0.84 0.75 0.86 1.08 1.08 1.39 2.02 2.35 2.14 1.79 1.51 1.26 1.19 1.21
0.61 0.61 0.55 0.49 0.54 0.67 0.85 1.06 1.37 1.57 1.64 1.61 1.55 1.26 1.30 1.32 1.14 1.08 1.18 1.22 1.18 1.17 1.31 1.36 1.34 1.24 1.08 0.91 0.90 0.91 0.87 0.87 1.07 1.19 1.46 1.78 2.24 2.44 2.14 1.77 1.55 1.49 1.48
0.70 0.79 0.74 0.60 0.57 0.66 0.75 0.76 0.92 1.09 1.19 1.45 1.52 1.16 1.07 1.11 1.21 1.22 1.12 1.27 1.34 1.35 1.36 1.39 1.30 1.22 1.22 1.09 1.10 1.11 1.12 0.99 1.06 1.11 1.28 1.49 1.89 2.49 2.59 2.29 2.05 1.87 1.77
0.56 0.67 0.72 0.72 0.74 0.75 0.72 0.66 0.65 0.70 0.83 0.99 1.04 0.91 0.88 0.91 1.08 1.28 1.19 1.16 1.24 1.43 1.51 1.48 1.38 1.39 1.38 1.22 1.21 1.26 1.23 1.17 1.18 1.21 1.33 1.29 1.32 1.73 2.25 2.50 2.48 2.33 2.13
0.46 0.52 0.60 0.66 0.71 0.76 0.83 0.82 0.68 0.68 0.76 0.78 0.78 0.80 0.84 0.84 1.00 1.21 1.16 1.07 1.07 1.22 1.41 1.58 1.62 1.59 1.39 1.30 1.28 1.31 1.24 1.22 1.22 1.39 1.41 1.42 1.28 1.25 1.60 1.91 2.20 2.33 2.36
0.44 0.45 0.52 0.51 0.58 0.68 0.82 0.90 0.87 0.86 0.85 0.78 0.70 0.64 0.66 0.68 0.77 1.00 1.11 1.04 1.03 1.19 1.42 1.65 1.80 1.83 1.64 1.57 1.60 1.51 1.33 1.30 1.26 1.38 1.42 1.47 1.53 1.28 1.19 1.23 1.46 1.73 1.94
0.42 0.43 0.46 0.48 0.51 0.56 0.69 0.77 0.79 0.82 0.84 0.80 0.74 0.64 0.57 0.58 0.67 0.90 1.14 1.19 1.20 1.33 1.43 1.45 1.68 1.79 1.85 1.76 1.63 1.51 1.42 1.43 1.41 1.35 1.50 1.50 1.49 1.39 1.21 0.96 0.89 1.01 1.33
0.41 0.42 0.47 0.48 0.48 0.49 0.52 0.61 0.70 0.70 0.72 0.77 0.70 0.66 0.69 0.76 0.83 1.04 1.28 1.36 1.46 1.51 1.60 1.78 2.05 2.07 1.95 1.94 1.77 1.55 1.43 1.44 1.46 1.54 1.56 1.54 1.55 1.38 1.21 1.04 0.91 0.71 0.87
0.35 0.38 0.43 0.47 0.47 0.44 0.40 0.45 0.52 0.55 0.67 0.77 0.83 0.89 0.89 0.90 0.99 1.19 1.41 1.67 1.80 1.68 1.73 1.96 2.24 2.39 2.20 2.03 2.10 1.98 1.81 1.62 1.57 1.54 1.54 1.59 1.61 1.53 1.37 1.29 1.18 1.04 0.92
0.24 0.28 0.35 0.37 0.36 0.33 0.31 0.36 0.44 0.52 0.63 0.81 0.97 1.18 1.12 1.04 1.09 1.11 1.35 1.55 1.65 1.74 1.79 1.90 2.17 2.52 2.36 2.09 2.27 2.64 2.44 2.22 1.78 1.46 1.57 1.63 1.68 1.61 1.49 1.32 1.27 1.20 1.15
0.21 0.24 0.28 0.31 0.32 0.31 0.39 0.57 0.84 1.10 1.22 1.28 1.32 1.53 1.56 1.44 1.39 1.36 1.40 1.51 1.60 1.74 1.86 1.91 1.96 2.26 2.38 2.22 2.20 2.73 2.71 2.52 2.34 1.85 1.50 1.55 1.67 1.74 1.71 1.58 1.41 1.33 1.25
0.20 0.25 0.28 0.31 0.38 0.39 0.54 0.86 1.25 1.59 1.71 1.70 1.81 1.88 1.96 1.87 1.69 1.68 1.71 1.78 1.71 1.67 1.73 1.76 1.77 1.96 2.32 2.41 2.26 2.11 2.07 2.17 2.51 2.26 1.74 1.57 1.58 1.61 1.72 1.59 1.60 1.60 1.57
0.26 0.32 0.37 0.43 0.58 0.74 0.88 1.03 1.34 1.52 1.62 1.75 1.91 2.14 2.29 2.36 2.27 2.20 2.16 2.02 1.81 1.74 1.78 1.81 1.82 1.90 2.03 2.21 2.18 2.03 1.98 1.94 1.84 2.05 2.02 1.79 1.58 1.48 1.58 1.62 1.64 1.64 1.71
0.40 0.47 0.51 0.63 0.75 0.83 0.94 1.07 1.21 1.28 1.41 1.63 1.82 2.05 2.21 2.29 2.27 2.20 2.07 1.84 1.65 1.59 1.66 1.81 1.85 1.92 1.92 1.98 1.95 1.85 1.85 1.80 1.73 1.90 1.88 1.88 1.82 1.47 1.36 1.43 1.49 1.53 1.52

GEFSSE_prec_meanprecacc_246.txt.gz
Total_Precipitation_Accumulation
1.76 1.48 2.35 2.41 2.13 1.89 1.82 1.88 2.00 2.08 2.12 2.04 1.99 1.92 1.73 1.51 1.36 1.30 1.18 1.15 1.13 1.11 1.09 1.02 1.07 1.10 1.07 1.06 1.11 1.16 1.20 1.11 1.11 1.12 1.03 1.09 1.25 1.24 1.22 1.42 2.01 2.37 1.76
1.10 1.20 2.17 2.31 2.02 1.84 1.76 1.90 2.11 2.18 2.28 2.26 2.03 1.84 1.66 1.43 1.25 1.19 1.20 1.12 1.08 1.04 1.03 1.03 1.06 1.14 1.17 1.15 1.20 1.25 1.18 1.16 1.20 1.25 1.29 1.34 1.35 1.33 1.28 1.40 1.84 2.17 1.74
0.88 1.01 1.62 2.21 2.01 1.92 1.93 1.99 2.07 2.12 2.12 2.00 1.83 1.70 1.58 1.40 1.26 1.21 1.19 1.09 1.00 1.00 0.94 0.94 0.96 1.04 1.12 1.16 1.18 1.14 1.04 1.10 1.19 1.40 1.89 2.39 1.84 1.51 1.49 1.47 1.64 1.64 1.58
0.91 0.94 1.21 2.01 2.08 2.04 2.10 2.07 1.94 1.86 1.83 1.69 1.64 1.59 1.46 1.41 1.32 1.23 1.16 1.08 0.96 0.93 0.94 0.94 0.89 0.93 1.00 1.05 1.12 1.03 0.93 1.05 1.20 1.45 1.90 2.43 2.31 1.94 1.77 1.73 1.76 1.55 1.52
0.93 1.00 1.38 2.09 2.14 2.11 2.06 2.03 2.02 1.82 1.75 1.59 1.45 1.47 1.42 1.39 1.27 1.21 1.15 1.03 0.94 0.92 0.87 0.89 0.92 0.95 1.06 1.08 1.06 1.00 0.96 1.06 1.29 1.20 1.49 2.03 2.57 2.35 1.80 1.81 1.85 1.66 1.64
1.01 1.08 1.42 1.94 2.05 2.05 2.01 1.99 1.91 1.72 1.60 1.51 1.39 1.43 1.45 1.42 1.31 1.19 1.10 1.05 0.97 0.95 0.90 0.90 0.98 1.06 1.16 1.13 1.10 1.13 1.15 1.14 1.09 1.21 1.54 1.95 2.49 2.36 1.87 1.74 1.62 1.70 1.69
1.07 1.08 1.34 1.81 1.90 1.96 1.86 1.69 1.67 1.65 1.51 1.37 1.32 1.32 1.31 1.31 1.25 1.18 1.23 1.21 1.08 1.01 0.97 0.97 1.09 1.10 1.14 1.14 1.17 1.22 1.29 1.13 1.03 1.32 1.47 1.85 2.08 2.15 1.83 1.65 1.68 1.86 1.82
1.12 1.05 1.16 1.58 1.74 1.78 1.71 1.64 1.64 1.59 1.48 1.31 1.22 1.20 1.21 1.22 1.11 1.06 1.13 1.13 1.09 1.06 1.02 0.99 1.07 1.00 1.04 1.14 1.23 1.31 1.40 1.16 0.99 1.17 1.24 1.63 2.15 2.23 1.78 1.64 1.69 1.87 2.00
1.40 1.22 1.13 1.26 1.45 1.58 1.71 1.72 1.77 1.74 1.65 1.48 1.29 1.23 1.22 1.14 0.97 0.91 1.04 1.09 1.10 1.05 1.04 1.07 1.13 1.07 1.07 1.20 1.32 1.40 1.41 1.17 1.11 1.17 1.05 1.65 2.32 2.08 1.66 1.47 1.49 1.67 1.80
1.37 1.32 1.22 1.26 1.33 1.38 1.51 1.74 1.94 2.01 2.06 1.78 1.43 1.32 1.19 1.02 0.93 0.96 0.99 1.10 1.20 1.20 1.20 1.24 1.28 1.22 1.25 1.25 1.31 1.34 1.22 1.00 1.05 1.03 1.27 1.63 2.20 2.06 1.65 1.42 1.40 1.38 1.46
0.98 1.06 1.11 1.17 1.30 1.33 1.36 1.46 1.81 2.00 2.12 1.78 1.31 1.33 1.19 0.94 0.88 0.98 1.02 1.34 1.44 1.46 1.49 1.51 1.46 1.45 1.39 1.31 1.34 1.32 1.03 0.78 0.90 1.09 1.38 1.78 2.18 2.08 1.67 1.45 1.23 1.21 1.24
0.81 0.76 0.78 0.79 0.89 1.07 1.16 1.42 1.72 1.76 1.87 1.53 1.28 1.28 1.21 1.26 1.17 0.96 1.07 1.44 1.61 1.66 1.55 1.50 1.54 1.43 1.21 1.01 1.00 0.99 0.85 0.82 0.91 1.06 1.36 2.00 2.32 2.11 1.69 1.43 1.21 1.16 1.17
0.60 0.59 0.59 0.63 0.65 0.81 1.14 1.43 1.68 1.78 1.84 1.79 1.72 1.51 1.45 1.37 1.16 1.02 1.00 1.08 1.20 1.27 1.17 1.27 1.30 1.11 1.02 0.92 0.91 0.84 0.76 0.88 1.11 1.12 1.46 2.12 2.45 2.22 1.86 1.57 1.31 1.26 1.29
0.62 0.62 0.56 0.49 0.55 0.68 0.87 1.10 1.42 1.60 1.66 1.64 1.58 1.27 1.32 1.34 1.16 1.11 1.20 1.25 1.22 1.20 1.34 1.38 1.35 1.26 1.09 0.92 0.90 0.92 0.87 0.89 1.10 1.23 1.54 1.87 2.35 2.56 2.23 1.85 1.64 1.58 1.55
0.71 0.80 0.75 0.61 0.58 0.67 0.76 0.78 0.96 1.14 1.23 1.48 1.54 1.18 1.10 1.13 1.23 1.23 1.13 1.29 1.36 1.37 1.39 1.43 1.32 1.23 1.24 1.10 1.10 1.11 1.13 1.01 1.08 1.14 1.34 1.55 1.98 2.60 2.74 2.45 2.19 1.97 1.84
0.56 0.68 0.73 0.74 0.75 0.77 0.73 0.67 0.66 0.73 0.87 1.02 1.06 0.93 0.89 0.92 1.09 1.29 1.20 1.17 1.25 1.45 1.54 1.52 1.42 1.43 1.41 1.24 1.22 1.27 1.25 1.19 1.21 1.25 1.37 1.34 1.37 1.82 2.37 2.66 2.63 2.41 2.20
0.47 0.53 0.61 0.68 0.73 0.78 0.85 0.83 0.69 0.69 0.78 0.80 0.81 0.82 0.85 0.85 1.02 1.23 1.17 1.08 1.08 1.23 1.42 1.62 1.67 1.64 1.43 1.34 1.30 1.32 1.25 1.24 1.25 1.42 1.45 1.48 1.36 1.33 1.69 2.03 2.33 2.43 2.46
0.45 0.46 0.52 0.52 0.59 0.70 0.84 0.92 0.88 0.87 0.87 0.80 0.71 0.66 0.68 0.70 0.78 1.03 1.13 1.06 1.05 1.21 1.44 1.69 1.85 1.88 1.68 1.62 1.62 1.52 1.34 1.32 1.29 1.42 1.46 1.52 1.61 1.36 1.29 1.35 1.55 1.81 2.02
0.42 0.44 0.46 0.48 0.52 0.58 0.70 0.79 0.81 0.83 0.86 0.82 0.75 0.66 0.60 0.61 0.70 0.95 1.20 1.24 1.23 1.35 1.46 1.48 1.72 1.82 1.89 1.80 1.65 1.52 1.43 1.45 1.44 1.38 1.55 1.56 1.56 1.46 1.27 1.00 0.93 1.05 1.38
0.41 0.43 0.48 0.49 0.49 0.50 0.53 0.62 0.72 0.71 0.75 0.79 0.72 0.68 0.73 0.80 0.87 1.09 1.35 1.42 1.49 1.53 1.63 1.81 2.08 2.10 1.99 1.97 1.79 1.56 1.44 1.46 1.49 1.57 1.59 1.57 1.58 1.40 1.23 1.06 0.94 0.74 0.91
0.36 0.38 0.44 0.48 0.48 0.45 0.42 0.47 0.53 0.57 0.70 0.81 0.86 0.92 0.92 0.94 1.02 1.24 1.46 1.71 1.82 1.70 1.75 1.98 2.26 2.41 2.22 2.04 2.11 1.99 1.83 1.64 1.59 1.55 1.55 1.60 1.62 1.53 1.38 1.31 1.20 1.06 0.95
0.25 0.29 0.36 0.38 0.37 0.34 0.32 0.37 0.46 0.54 0.66 0.86 1.01 1.21 1.15 1.06 1.11 1.14 1.38 1.57 1.67 1.76 1.81 1.92 2.20 2.54 2.37 2.09 2.28 2.66 2.47 2.24 1.79 1.47 1.59 1.65 1.69 1.62 1.50 1.33 1.29 1.23 1.18
0.22 0.25 0.29 0.33 0.33 0.32 0.39 0.58 0.85 1.12 1.24 1.31 1.35 1.56 1.59 1.46 1.42 1.39 1.43 1.53 1.62 1.77 1.90 1.93 1.98 2.29 2.40 2.23 2.22 2.76 2.74 2.55 2.35 1.86 1.52 1.59 1.70 1.75 1.72 1.60 1.44 1.37 1.30
0.21 0.26 0.29 0.32 0.38 0.40 0.55 0.87 1.27 1.61 1.74 1.73 1.83 1.90 1.98 1.89 1.72 1.72 1.74 1.81 1.74 1.71 1.77 1.79 1.79 1.99 2.34 2.43 2.28 2.14 2.09 2.19 2.54 2.29 1.77 1.61 1.62 1.64 1.74 1.63 1.63 1.63 1.59
0.27 0.34 0.38 0.45 0.59 0.75 0.89 1.05 1.35 1.54 1.64 1.77 1.93 2.17 2.32 2.37 2.29 2.22 2.18 2.05 1.84 1.76 1.81 1.84 1.84 1.93 2.06 2.24 2.21 2.06 2.01 1.97 1.86 2.07 2.06 1.84 1.64 1.52 1.61 1.65 1.66 1.66 1.72
0.41 0.49 0.53 0.65 0.77 0.84 0.94 1.08 1.22 1.29 1.43 1.64 1.83 2.06 2.22 2.31 2.28 2.21 2.08 1.86 1.68 1.62 1.70 1.84 1.88 1.95 1.95 2.02 1.98 1.87 1.88 1.84 1.77 1.93 1.92 1.94 1.90 1.52 1.38 1.45 1.51 1.54 1.53

GEFSSE_prec_meanprecacc_252.txt.gz
Total_Precipitation_Accumulation
1.82 1.50 2.37 2.42 2.14 1.91 1.87 1.97 2.08 2.16 2.21 2.14 2.08 2.00 1.78 1.56 1.43 1.37 1.24 1.20 1.20 1.19 1.16 1.07 1.11 1.14 1.10 1.09 1.14 1.19 1.24 1.16 1.17 1.18 1.08 1.15 1.30 1.29 1.27 1.48 2.09 2.49 1.94
1.15 1.21 2.18 2.32 2.03 1.86 1.79 1.97 2.20 2.28 2.38 2.38 2.13 1.93 1.73 1.49 1.30 1.26 1.28 1.18 1.14 1.12 1.10 1.08 1.11 1.18 1.21 1.19 1.25 1.29 1.21 1.20 1.24 1.29 1.37 1.41 1.40 1.38 1.32 1.44 1.90 2.26 1.83
0.92 1.03 1.63 2.23 2.03 1.94 1.96 2.05 2.15 2.20 2.20 2.12 1.93 1.79 1.68 1.49 1.34 1.28 1.25 1.15 1.04 1.05 0.99 0.99 1.00 1.07 1.14 1.19 1.21 1.18 1.07 1.13 1.24 1.46 2.01 2.53 1.91 1.56 1.53 1.51 1.69 1.69 1.64
0.95 0.97 1.22 2.03 2.10 2.06 2.13 2.12 2.01 1.95 1.90 1.76 1.73 1.68 1.55 1.51 1.40 1.29 1.21 1.11 0.99 0.96 0.97 0.98 0.92 0.95 1.02 1.08 1.14 1.06 0.97 1.10 1.25 1.52 2.03 2.59 2.41 1.99 1.81 1.77 1.82 1.60 1.59
0.95 1.01 1.39 2.11 2.16 2.14 2.09 2.05 2.06 1.87 1.81 1.65 1.53 1.55 1.49 1.46 1.34 1.28 1.20 1.07 0.97 0.96 0.90 0.93 0.95 0.97 1.09 1.12 1.09 1.02 0.99 1.10 1.33 1.26 1.58 2.14 2.67 2.41 1.85 1.86 1.91 1.72 1.71
1.02 1.09 1.42 1.95 2.07 2.10 2.04 2.02 1.94 1.75 1.62 1.54 1.43 1.47 1.48 1.45 1.34 1.24 1.15 1.10 1.00 0.99 0.93 0.94 1.03 1.09 1.18 1.15 1.13 1.16 1.19 1.19 1.14 1.28 1.64 2.05 2.59 2.43 1.92 1.79 1.68 1.75 1.76
1.08 1.08 1.35 1.82 1.92 2.00 1.90 1.73 1.71 1.68 1.54 1.39 1.35 1.35 1.34 1.35 1.30 1.23 1.27 1.24 1.11 1.05 1.01 1.01 1.14 1.13 1.15 1.16 1.20 1.26 1.34 1.18 1.08 1.41 1.55 1.92 2.17 2.22 1.86 1.69 1.72 1.91 1.90
1.13 1.05 1.16 1.59 1.77 1.82 1.74 1.67 1.68 1.63 1.51 1.34 1.24 1.23 1.24 1.26 1.18 1.12 1.17 1.16 1.12 1.09 1.06 1.02 1.11 1.03 1.06 1.16 1.26 1.35 1.43 1.18 1.02 1.22 1.28 1.68 2.23 2.30 1.84 1.69 1.73 1.94 2.08
1.41 1.24 1.14 1.27 1.47 1.60 1.74 1.75 1.80 1.77 1.68 1.52 1.33 1.26 1.25 1.18 1.01 0.96 1.08 1.13 1.14 1.09 1.09 1.11 1.16 1.09 1.08 1.22 1.35 1.43 1.44 1.19 1.14 1.21 1.09 1.70 2.38 2.14 1.73 1.53 1.54 1.73 1.87
1.38 1.33 1.24 1.27 1.34 1.41 1.54 1.76 1.97 2.05 2.10 1.83 1.48 1.37 1.24 1.07 0.98 1.01 1.03 1.14 1.24 1.23 1.24 1.27 1.31 1.24 1.26 1.27 1.33 1.36 1.25 1.03 1.10 1.07 1.32 1.69 2.26 2.12 1.71 1.47 1.45 1.42 1.51
0.99 1.06 1.12 1.18 1.31 1.35 1.38 1.48 1.83 2.02 2.15 1.82 1.35 1.37 1.24 1.02 0.97 1.05 1.07 1.38 1.47 1.49 1.53 1.53 1.48 1.46 1.40 1.33 1.35 1.33 1.05 0.80 0.94 1.14 1.45 1.86 2.24 2.14 1.72 1.50 1.28 1.27 1.30
0.82 0.77 0.79 0.80 0.90 1.08 1.17 1.44 1.74 1.78 1.90 1.57 1.32 1.32 1.26 1.32 1.25 1.01 1.11 1.48 1.65 1.70 1.58 1.52 1.56 1.46 1.24 1.04 1.02 1.01 0.88 0.84 0.94 1.10 1.41 2.09 2.38 2.17 1.75 1.49 1.28 1.22 1.24
0.61 0.60 0.60 0.64 0.65 0.82 1.15 1.44 1.70 1.81 1.87 1.83 1.76 1.54 1.50 1.42 1.22 1.07 1.05 1.13 1.25 1.31 1.21 1.31 1.35 1.17 1.07 0.96 0.93 0.88 0.79 0.90 1.15 1.17 1.52 2.20 2.52 2.28 1.92 1.66 1.39 1.32 1.34
0.62 0.62 0.56 0.49 0.55 0.69 0.87 1.11 1.44 1.63 1.70 1.68 1.62 1.32 1.37 1.40 1.22 1.16 1.26 1.31 1.27 1.26 1.39 1.44 1.42 1.31 1.14 0.95 0.94 0.94 0.89 0.91 1.14 1.29 1.62 1.94 2.41 2.64 2.31 1.95 1.74 1.65 1.61
0.71 0.81 0.75 0.61 0.58 0.68 0.77 0.80 0.97 1.17 1.27 1.52 1.59 1.23 1.13 1.17 1.26 1.27 1.17 1.33 1.39 1.40 1.44 1.49 1.38 1.27 1.27 1.13 1.14 1.14 1.15 1.05 1.13 1.21 1.41 1.62 2.07 2.71 2.85 2.56 2.28 2.04 1.91
0.57 0.68 0.73 0.74 0.75 0.77 0.75 0.69 0.68 0.75 0.91 1.07 1.10 0.95 0.92 0.94 1.11 1.32 1.22 1.20 1.26 1.46 1.56 1.56 1.44 1.45 1.42 1.26 1.27 1.30 1.28 1.23 1.26 1.31 1.44 1.39 1.43 1.90 2.48 2.77 2.73 2.48 2.26
0.49 0.53 0.61 0.68 0.74 0.80 0.87 0.85 0.70 0.71 0.81 0.85 0.84 0.84 0.87 0.87 1.04 1.27 1.22 1.11 1.10 1.25 1.44 1.64 1.70 1.66 1.44 1.35 1.33 1.35 1.29 1.30 1.30 1.47 1.50 1.53 1.40 1.39 1.79 2.16 2.46 2.52 2.56
0.47 0.47 0.52 0.52 0.60 0.73 0.86 0.95 0.91 0.89 0.89 0.84 0.75 0.68 0.70 0.73 0.82 1.07 1.17 1.09 1.08 1.23 1.46 1.71 1.89 1.91 1.71 1.63 1.64 1.55 1.38 1.37 1.35 1.47 1.51 1.58 1.67 1.42 1.36 1.43 1.64 1.92 2.14
0.43 0.44 0.46 0.49 0.53 0.60 0.73 0.82 0.84 0.85 0.89 0.85 0.78 0.69 0.63 0.64 0.73 0.99 1.24 1.28 1.25 1.37 1.48 1.50 1.75 1.86 1.93 1.83 1.68 1.55 1.47 1.48 1.49 1.45 1.60 1.61 1.61 1.51 1.32 1.04 0.98 1.12 1.46
0.41 0.43 0.48 0.50 0.50 0.51 0.56 0.65 0.74 0.74 0.77 0.82 0.75 0.72 0.76 0.84 0.91 1.14 1.40 1.46 1.52 1.55 1.65 1.85 2.11 2.13 2.03 2.01 1.81 1.59 1.47 1.48 1.53 1.62 1.64 1.62 1.63 1.44 1.27 1.10 0.97 0.77 0.95
0.36 0.39 0.44 0.50 0.49 0.47 0.45 0.52 0.59 0.62 0.74 0.84 0.88 0.95 0.95 0.97 1.05 1.29 1.50 1.76 1.87 1.74 1.78 2.02 2.31 2.46 2.26 2.08 2.15 2.03 1.86 1.66 1.62 1.58 1.58 1.62 1.64 1.56 1.41 1.37 1.26 1.10 0.99
0.25 0.29 0.36 0.39 0.37 0.34 0.34 0.40 0.52 0.60 0.70 0.88 1.04 1.24 1.18 1.10 1.14 1.17 1.44 1.63 1.72 1.81 1.85 1.96 2.27 2.61 2.42 2.13 2.33 2.71 2.52 2.29 1.83 1.49 1.61 1.66 1.71 1.64 1.52 1.36 1.33 1.26 1.22
0.22 0.25 0.30 0.34 0.34 0.33 0.41 0.60 0.89 1.16 1.28 1.34 1.38 1.61 1.64 1.51 1.47 1.43 1.47 1.58 1.65 1.81 1.94 1.98 2.04 2.36 2.45 2.28 2.26 2.83 2.81 2.61 2.40 1.90 1.55 1.60 1.72 1.78 1.74 1.61 1.47 1.41 1.34
0.21 0.26 0.30 0.33 0.40 0.42 0.58 0.90 1.32 1.65 1.77 1.76 1.85 1.94 2.02 1.93 1.76 1.75 1.77 1.85 1.77 1.73 1.82 1.84 1.84 2.06 2.42 2.50 2.34 2.19 2.15 2.24 2.60 2.35 1.81 1.64 1.65 1.66 1.77 1.64 1.66 1.67 1.63
0.27 0.34 0.39 0.46 0.61 0.78 0.91 1.08 1.38 1.56 1.66 1.80 1.97 2.21 2.37 2.42 2.32 2.25 2.21 2.07 1.87 1.80 1.85 1.90 1.90 1.99 2.12 2.30 2.28 2.12 2.08 2.02 1.92 2.13 2.12 1.91 1.70 1.57 1.65 1.68 1.69 1.69 1.74
0.42 0.49 0.54 0.67 0.78 0.85 0.96 1.09 1.23 1.31 1.46 1.68 1.87 2.13 2.29 2.34 2.33 2.25 2.10 1.87 1.70 1.65 1.74 1.90 1.93 2.00 1.99 2.06 2.03 1.93 1.94 1.89 1.81 1.98 1.97 2.00 1.97 1.58 1.43 1.49 1.54 1.57 1.55